Flag for France Weather past 2 weeks in Besançon, France

Now
52 °F

Clear.


Feels Like: 49 °F
Forecast: 37 / 48 °F
Wind: 9 mph from Northwest

Location: Dole Tavaux

Current Time: Oct 22, 2014 at 12:25:46 AM

Latest Report: Oct 21, 2014 at 11:30 PM


Visibility: N/A

Pressure: 30.15 "Hg

Humidity: 67%

Dew point: 41 °F

Location of BesançonLocation

Historic Weather in Besançon — Graph

°F

Besançon temperature yesterday

Maximum temperature yesterday: 66 °F (at 3:00 PM)
Minimum temperature yesterday: 52 °F (at 10:00 PM)
Average temperature yesterday: 60 °F

Past Weeks' High & Low Weather Summary

 TemperatureHumidityPressure
High75 °F (Oct 18, 3:30 PM)100% (Oct 8, 6:00 AM)30.21 "Hg (Oct 8, 6:00 AM)
Low46 °F (Oct 12, 7:30 AM)56% (Oct 9, 8:00 AM)29.71 "Hg (Oct 7, 7:30 AM)
Average60 °F86%29.92 "Hg
* Reported Oct 6 11:00 PM — Oct 21 11:30 PM, Besançon, Weather by CustomWeather, © 2014

Note: Actual official high and low records may vary slightly from our data, if they occured in-between our weather recording intervals... More about our weather records

Advertising

Besançon weather history for previous 24 hours

 ConditionsComfort  
Time TempWeatherWind HumidityBarometerVisibility
11:30 PM
Oct 21
52 °FClear.9 mph67%30.15 "HgN/A
11:00 PM54 °FPartly cloudy.9 mph63%30.15 "HgN/A
10:30 PM52 °FOvercast.7 mph72%30.15 "HgN/A
10:00 PM52 °FPassing clouds.9 mph72%30.12 "HgN/A
9:30 PM54 °FClear.10 mph67%30.09 "HgN/A
9:00 PM54 °FClear.10 mph63%30.07 "HgN/A
8:30 PM54 °FClear.12 mph67%30.04 "HgN/A
8:00 PM54 °FPassing clouds.14 mph72%30.01 "HgN/A
7:30 PM55 °FBroken clouds.12 mph77%29.98 "HgN/A
7:00 PM55 °FLight rain. Partly sunny.17 mph88%29.98 "HgN/A
6:30 PM61 °FCool.21 mph77%29.89 "HgN/A
6:00 PM61 °FBroken clouds.22 mph83%29.89 "HgN/A
5:30 PM61 °FLight rain. Fog.25 mph83%29.92 "Hg2 mi
5:00 PM64 °FOvercast.24 mph68%29.92 "HgN/A
4:30 PM64 °FBroken clouds.16 mph78%29.89 "HgN/A
4:00 PM66 °FClear.20 mph73%29.92 "HgN/A
3:30 PM64 °FClear.18 mph73%29.92 "HgN/A
3:00 PM66 °FMild.17 mph73%29.95 "HgN/A
2:30 PM64 °FPartly sunny.12 mph78%29.95 "HgN/A
2:00 PM64 °FMostly cloudy.14 mph78%29.98 "HgN/A
1:30 PM63 °FLight rain. Partly sunny.13 mph83%29.98 "HgN/A
1:00 PM64 °FPartly sunny.14 mph78%30.01 "HgN/A
12:30 PM63 °FBroken clouds.16 mph77%30.01 "HgN/A
12:00 PM63 °FPartly sunny.12 mph83%30.04 "HgN/A
11:30 AM63 °FMore clouds than sun.14 mph83%30.04 "HgN/A
11:00 AM63 °FOvercast.13 mph83%30.04 "HgN/A
10:30 AM63 °FClear.15 mph83%30.04 "HgN/A
10:00 AM61 °FPassing clouds.12 mph94%30.04 "HgN/A
9:30 AM59 °FOvercast.10 mph94%30.04 "HgN/A
9:00 AM59 °FOvercast.12 mph94%30.04 "HgN/A
8:30 AM61 °FMostly cloudy.9 mph94%30.04 "HgN/A
8:00 AM59 °FOvercast.8 mph100%30.01 "HgN/A
7:30 AM59 °FFog.5 mph94%30.01 "Hg3 mi
7:00 AM59 °FFog.3 mph94%30.01 "Hg1 mi
6:30 AM59 °FMostly cloudy.2 mph100%30.04 "Hg4 mi
6:00 AM59 °FOvercast.2 mph100%30.04 "Hg4 mi
5:30 AM59 °FMostly cloudy.2 mph100%30.04 "Hg4 mi
5:00 AM59 °FFog.No wind100%30.04 "Hg3 mi
4:30 AM59 °FFog.1 mph100%30.04 "Hg3 mi
4:00 AM59 °FLow clouds.2 mph100%30.04 "Hg4 mi
3:30 AM59 °FOvercast.2 mph100%30.04 "HgN/A
3:00 AM59 °FPassing clouds.No wind100%30.04 "HgN/A
2:30 AM59 °FRain. Fog.3 mph100%30.07 "Hg1 mi
2:00 AM59 °FCool.1 mph100%30.07 "HgN/A
1:30 AM61 °FLight rain. Partly cloudy.1 mph94%30.07 "Hg4 mi
1:00 AM61 °FPassing clouds.5 mph94%30.04 "HgN/A
12:30 AM61 °FThundershowers. Partly cloudy.6 mph94%30.07 "HgN/A
12:00 AM61 °FThundershowers. Passing clouds.5 mph94%30.07 "HgN/A
Weather by CustomWeather, © 2014

See weather overviewHow to use our weather pages